Powrót do katalogu

STARLINK-37601

AktywnyŁącznośćVLEO
NORAD 69450·PAYLOAD·🇺🇸 United States

Wystrzelony Jun 8, 2026 z Cape Canaveral Space Force Station

Loading…

Następne Przeloty (najbliższe 24 godziny)

TLE

ŚwieżeSource: CelesTrak SupGP

Epoka: Sep 14, 2026, 21:07 UTC

1 69450C 26127H   26257.88034722  .00017068  00000+0  50410-3 0  2579
2 69450  53.1569 191.9224 0001181  93.1424 144.4486 15.34393903    19

Śledź STARLINK-37601 w czasie rzeczywistym z AllMySat

Download on the App Store